Flag for U.S.A. Weather past 2 weeks in Syracuse, New York, U.S.A.

Now
79 °F

Partly sunny.


Feels Like: 81 °F
Forecast: 62 / 82 °F
Wind: 5 mph from Northeast

Location: Syracuse Hancock International Airport

Current Time: Aug 30, 2015 at 4:57:25 PM

Latest Report: Aug 30, 2015 at 3:54 PM


Visibility: 10 mi

Pressure: 30.01 "Hg

Humidity: 62%

Dew point: 65 °F

Location of SyracuseLocation

Historic Weather in Syracuse — Graph

°F

Syracuse temperature yesterday

Maximum temperature yesterday: 80 °F (at 12:54 PM)
Minimum temperature yesterday: 54 °F (at 4:54 AM)
Average temperature yesterday: 67 °F

Past Weeks' High & Low Weather Summary

 TemperatureHumidityPressure
High88 °F (Aug 17, 2:54 PM)100% (Aug 16, 3:54 AM)30.21 "Hg (Aug 16, 3:54 AM)
Low54 °F (Aug 28, 1:54 AM)42% (Aug 25, 12:54 PM)29.80 "Hg (Aug 20, 3:54 PM)
Average70 °F76%30.01 "Hg
* Reported Aug 15 2:54 PM — Aug 30 2:54 PM, Syracuse, Weather by CustomWeather, © 2015

Note: Actual official high and low records may vary slightly from our data, if they occured in-between our weather recording intervals... More about our weather records

Advertising

Syracuse weather history for previous 24 hours

 ConditionsComfort  
Time TempWeatherWind HumidityBarometerVisibility
2:54 PM
Sun, Aug 30
80 °FScattered clouds.5 mph58%30.03 "Hg10 mi
1:54 PM77 °FBroken clouds.6 mph62%30.05 "Hg10 mi
12:54 PM77 °FCloudy.5 mph64%30.06 "Hg10 mi
11:54 AM75 °FMore clouds than sun.5 mph69%30.06 "Hg10 mi
10:54 AM72 °FMostly cloudy.5 mph76%30.08 "Hg10 mi
9:54 AM70 °FMostly cloudy.No wind79%30.07 "Hg10 mi
8:54 AM68 °FMostly cloudy.No wind82%30.07 "Hg10 mi
7:54 AM65 °FCloudy.3 mph91%30.07 "Hg10 mi
6:54 AM64 °FMostly cloudy.No wind90%30.07 "Hg10 mi
5:54 AM64 °FMostly cloudy.3 mph90%30.05 "Hg10 mi
4:54 AM64 °FOvercast.5 mph90%30.05 "Hg10 mi
3:54 AM65 °FOvercast.5 mph87%30.05 "Hg10 mi
2:54 AM65 °FMostly cloudy.No wind85%30.06 "Hg10 mi
1:54 AM64 °FMostly cloudy.5 mph90%30.06 "Hg10 mi
12:54 AM64 °FMostly cloudy.3 mph90%30.07 "Hg10 mi
11:54 PM
Sat, Aug 29
64 °FPartly cloudy.5 mph90%30.07 "Hg10 mi
10:54 PM64 °FPassing clouds.3 mph90%30.08 "Hg10 mi
9:54 PM66 °FPartly cloudy.No wind81%30.10 "Hg10 mi
8:54 PM67 °FPartly cloudy.No wind81%30.09 "Hg10 mi
7:54 PM69 °FBroken clouds.No wind73%30.09 "Hg10 mi
6:54 PM72 °FBroken clouds.8 mph71%30.08 "Hg10 mi
5:54 PM74 °FMostly cloudy.7 mph64%30.08 "Hg10 mi
4:54 PM76 °FMostly cloudy.12 mph64%30.08 "Hg10 mi
Weather by CustomWeather, © 2015

See weather overviewHow to use our weather pages